EW7007 Weather Reports


time (UTC)temp
F
wind
direction
speed
knots
gust
knots
rain 1hr
in
rain 24hr
in
rain mn
in
humidity
%
barometer
mb
20260504204218 83 337 2.6 8.7 0.00 0.00 0.00 28 1000.9
20260504203716 84 336 1.7 6.1 0.00 0.00 0.00 28 1000.9
20260504203216 84 339 2.6 6.1 0.00 0.00 0.00 26 1001.0
20260504202719 85 350 1.7 6.1 0.00 0.00 0.00 27 1000.9
20260504202217 85 335 1.7 5.2 0.00 0.00 0.00 26 1000.9
20260504201717 85 317 2.6 7.0 0.00 0.00 0.00 26 1000.9
20260504201219 85 311 2.6 7.0 0.00 0.00 0.00 26 1000.8
20260504200217 85 344 2.6 6.1 0.00 0.00 0.00 25 1000.7
20260504195719 86 350 2.6 7.0 0.00 0.00 0.00 23 1000.7
20260504194717 86 301 1.7 7.0 0.00 0.00 0.00 25 1000.7
20260504194217 86 349 2.6 4.3 0.00 0.00 0.00 24 1000.7
20260504193716 87 334 2.6 7.8 0.00 0.00 0.00 22 1000.7
20260504193217 87 336 2.6 5.2 0.00 0.00 0.00 22 1000.7
20260504192217 87 315 1.7 7.0 0.00 0.00 0.00 24 1000.6
20260504191717 87 9 2.6 6.1 0.00 0.00 0.00 23 1000.6
20260504185217 87 23 1.7 6.1 0.00 0.00 0.00 22 1000.5
20260504184717 88 327 2.6 6.1 0.00 0.00 0.00 22 1000.7
20260504184217 87 0 2.6 6.1 0.00 0.00 0.00 21 1000.6
20260504183716 88 321 1.7 2.6 0.00 0.00 0.00 23 1000.6
20260504182719 87 244 1.7 5.2 0.00 0.00 0.00 20 1000.6
20260504182217 87 267 2.6 6.1 0.00 0.00 0.00 20 1000.7
20260504181716 86 346 1.7 6.1 0.00 0.00 0.00 21 1000.7
20260504180717 87 326 1.7 4.3 0.00 0.00 0.00 23 1000.7
20260504180216 86 331 1.7 5.2 0.00 0.00 0.00 22 1000.7
20260504175719 86 328 0.9 2.6 0.00 0.00 0.00 22 1000.6
20260504175217 86 268 1.7 5.2 0.00 0.00 0.00 21 1000.7
20260504174716 86 318 1.7 6.1 0.00 0.00 0.00 21 1000.8
20260504174217 86 288 2.6 5.2 0.00 0.00 0.00 21 1000.9
20260504173717 86 325 1.7 6.1 0.00 0.00 0.00 22 1000.9
20260504173217 85 284 2.6 7.0 0.00 0.00 0.00 22 1001.0
20260504172216 85 248 1.7 7.0 0.00 0.00 0.00 23 1001.1
20260504171716 84 302 0.9 2.6 0.00 0.00 0.00 25 1001.1
20260504171219 85 287 1.7 5.2 0.00 0.00 0.00 25 1001.3
20260504170716 85 307 1.7 4.3 0.00 0.00 0.00 24 1001.3
20260504170217 84 275 1.7 8.7 0.00 0.00 0.00 25 1001.4
20260504160217 78 238 0.9 2.6 0.00 0.00 0.00 35 1001.5
20260504141218 66 258 0.9 2.6 0.00 0.00 0.00 48 1001.9
20260504140717 65 255 0.9 4.3 0.00 0.00 0.00 48 1001.9
20260504130716 57 141 0.0 0.9 0.00 0.00 0.00 64 1001.8
20260504130217 56 142 0.0 0.0 0.00 0.00 0.00 66 1001.7
20260504120215 52 142 0.0 0.0 0.00 0.00 0.00 68 1001.2
20260504110714 55 142 0.0 0.9 0.00 0.00 0.00 58 1001.3
20260504110215 55 142 0.0 0.0 0.00 0.00 0.00 57 1001.2
20260504100214 58 178 0.0 0.0 0.00 0.00 0.00 49 1001.4
20260504081715 62 129 0.9 4.3 0.00 0.00 0.00 42 1002.8
20260504081219 62 128 2.6 6.1 0.00 0.00 0.00 42 1002.7
20260504080715 62 147 3.5 5.2 0.00 0.00 0.00 42 1002.8
20260504080214 62 148 1.7 6.1 0.00 0.00 0.00 42 1003.0
20260504070215 61 147 1.7 5.2 0.00 0.00 0.00 44 1004.2
20260504060214 58 93 0.0 0.0 0.00 0.00 0.00 51 1005.1
20260504045718 59 93 0.0 0.0 0.00 0.00 0.00 47 1005.8
20260504045215 59 93 0.0 0.9 0.00 0.00 0.00 48 1005.8
20260504044714 59 93 0.0 0.9 0.00 0.00 0.00 49 1005.9
20260504044219 59 93 0.0 0.0 0.00 0.00 0.00 49 1005.9
20260504043714 59 93 0.0 0.0 0.00 0.00 0.00 49 1006.1
20260504043215 59 93 0.0 0.0 0.00 0.00 0.00 51 1006.2
20260504042719 60 93 0.0 0.0 0.00 0.00 0.00 51 1006.2
20260504042214 60 93 0.0 0.0 0.00 0.00 0.00 51 1006.3
20260504041714 60 93 0.0 0.0 0.00 0.00 0.00 50 1006.4
20260504041217 60 93 0.0 0.0 0.00 0.00 0.00 51 1006.5
20260504040715 61 93 0.0 0.0 0.00 0.00 0.00 49 1006.6
20260504040214 61 93 0.0 0.0 0.00 0.00 0.00 48 1006.6
20260504035719 61 93 0.0 0.0 0.00 0.00 0.00 48 1006.7
20260504035214 61 93 0.0 0.0 0.00 0.00 0.00 49 1006.8
20260504034714 61 93 0.0 0.0 0.00 0.00 0.00 49 1006.9
20260504034219 62 93 0.0 0.0 0.00 0.00 0.00 47 1006.9
20260504033715 62 93 0.0 0.0 0.00 0.00 0.00 46 1006.9
20260504033214 62 93 0.0 0.0 0.00 0.00 0.00 48 1006.9
20260504032719 62 93 0.0 0.0 0.00 0.00 0.00 48 1006.9
20260504032214 63 93 0.0 0.0 0.00 0.00 0.00 46 1006.8
20260504031714 63 93 0.0 0.0 0.00 0.00 0.00 46 1006.9
20260504031216 63 93 0.0 0.0 0.00 0.00 0.00 46 1006.9
20260504030714 64 93 0.0 0.0 0.00 0.00 0.00 47 1006.9
20260504030214 64 93 0.0 0.0 0.00 0.00 0.00 46 1006.8
20260504025214 65 93 0.0 0.0 0.00 0.00 0.00 45 1006.9
20260504024714 65 93 0.0 0.0 0.00 0.00 0.00 45 1006.9
20260504023714 66 93 0.0 0.0 0.00 0.00 0.00 43 1007.0
20260504023214 66 93 0.0 0.0 0.00 0.00 0.00 43 1007.0
20260504022717 67 93 0.0 0.0 0.00 0.00 0.00 43 1007.0
20260504022214 67 93 0.0 0.0 0.00 0.00 0.00 42 1007.1
20260504021219 68 93 0.0 0.0 0.00 0.00 0.00 40 1007.1
20260504020715 69 93 0.0 0.0 0.00 0.00 0.00 39 1007.1
20260504020214 69 93 0.0 0.0 0.00 0.00 0.00 39 1007.2
20260504015214 70 93 0.0 0.0 0.00 0.00 0.00 37 1007.1
20260504014218 71 93 0.0 0.0 0.00 0.00 0.00 35 1007.1
20260504013715 71 93 0.0 0.0 0.00 0.00 0.00 35 1007.1
20260504013215 72 93 0.0 0.0 0.00 0.00 0.00 34 1007.1
20260504012718 72 93 0.0 0.0 0.00 0.00 0.00 33 1007.0
20260504011218 73 93 0.9 1.7 0.00 0.00 0.00 31 1007.1
20260504010714 73 93 0.0 1.7 0.00 0.00 0.00 31 1007.2
20260504005718 74 93 0.0 1.7 0.00 0.00 0.00 29 1007.2
20260504005214 74 93 0.0 0.9 0.00 0.00 0.00 29 1007.3
20260504004714 74 93 0.0 0.0 0.00 0.00 0.00 29 1007.4
20260504003214 75 93 0.0 0.9 0.00 0.00 0.00 28 1007.5
20260504002718 75 94 0.0 0.9 0.00 0.00 0.00 28 1007.5
20260504002215 76 94 0.9 2.6 0.00 0.00 0.00 27 1007.5
20260504001715 76 94 0.9 4.3 0.00 0.00 0.00 27 1007.6
20260504001218 76 94 0.9 4.3 0.00 0.00 0.00 27 1007.6
20260504000715 76 94 1.7 5.2 0.00 0.00 0.00 26 1007.7
20260504000214 77 246 0.9 1.7 0.00 0.00 0.00 26 1007.9
20260503235716 77 246 0.9 2.6 0.00 0.00 0.00 26 1007.9
20260503234715 77 47 0.0 1.7 0.00 0.00 0.00 27 1007.9
20260503234216 77 47 0.0 1.7 0.00 0.00 0.00 27 1007.9
20260503233714 77 47 0.9 2.6 0.00 0.00 0.00 27 1008.0
20260503233215 78 85 0.9 1.7 0.00 0.00 0.00 26 1008.1
20260503232718 78 85 0.0 2.6 0.00 0.00 0.00 26 1008.1
20260503232215 78 84 0.9 2.6 0.00 0.00 0.00 26 1008.1
20260503231714 78 88 0.9 2.6 0.00 0.00 0.00 25 1008.1
20260503230715 79 50 0.9 2.6 0.00 0.00 0.00 25 1007.9
20260503230214 79 49 1.7 4.3 0.00 0.00 0.00 24 1008.1
20260503225716 79 311 0.9 2.6 0.00 0.00 0.00 25 1008.3
20260503225214 79 309 0.9 1.7 0.00 0.00 0.00 25 1008.1
20260503224715 79 309 0.9 1.7 0.00 0.00 0.00 24 1008.3
20260503223715 79 311 1.7 2.6 0.00 0.00 0.00 24 1008.3
20260503223215 79 310 0.9 2.6 0.00 0.00 0.00 25 1008.3
20260503222716 78 82 0.9 1.7 0.00 0.00 0.00 26 1008.4
20260503222215 79 142 2.6 5.2 0.00 0.00 0.00 23 1008.4
20260503220715 79 79 1.7 4.3 0.00 0.00 0.00 25 1008.5
20260503220215 79 355 1.7 5.2 0.00 0.00 0.00 25 1008.5
20260503215718 79 80 2.6 6.1 0.00 0.00 0.00 23 1008.6
20260503215215 80 23 0.9 2.6 0.00 0.00 0.00 25 1008.6
20260503214714 79 326 1.7 2.6 0.00 0.00 0.00 24 1008.7
20260503214216 79 246 0.9 4.3 0.00 0.00 0.00 25 1008.7
20260503213214 79 86 1.7 2.6 0.00 0.00 0.00 25 1008.8
20260503212718 80 331 1.7 4.3 0.00 0.00 0.00 22 1008.8
20260503212214 79 202 2.6 4.3 0.00 0.00 0.00 22 1008.9
20260503211715 80 100 2.6 7.0 0.00 0.00 0.00 22 1009.0
20260503211216 80 328 1.7 4.3 0.00 0.00 0.00 23 1009.1
20260503210715 80 340 1.7 5.2 0.00 0.00 0.00 23 1009.2
20260503210215 80 321 0.9 4.3 0.00 0.00 0.00 23 1009.2
20260503205717 79 323 0.9 4.3 0.00 0.00 0.00 24 1009.3
20260503205215 79 324 1.7 5.2 0.00 0.00 0.00 25 1009.4